UAL2215 KMCO-KIAH

Flight info

Callsign UAL2215
Flight time 2h 12m
Altitude 32000
Route OSPRY1 REMIS ROZZI Y280 LEV NNCEE2
Aircraft B739/M-SDE2E3FGHIRWXY/LB1

Departure

Time 2026-05-03 22:17
Airport Orlando International Airport (KMCO)

Arrival

Time 2026-05-04 00:29
Airport George Bush Intercontinental Airport (KIAH)
Time Latitude Longitude Altitude Speed Heading
2026-05-03 21:46 28.42568 -81.31546 93 ft 0 kts 33°
2026-05-03 22:07 28.42563 -81.31549 93 ft 4 kts 33°
2026-05-03 22:07 28.42541 -81.31567 94 ft 4 kts 35°
2026-05-03 22:07 28.42522 -81.31580 93 ft 4 kts 13°
2026-05-03 22:07 28.42504 -81.31578 92 ft 4 kts 291°
2026-05-03 22:08 28.42505 -81.31551 91 ft 4 kts 257°
2026-05-03 22:08 28.42507 -81.31538 91 ft 0 kts 257°
2026-05-03 22:12 28.42507 -81.31539 94 ft 1 kts 257°
2026-05-03 22:12 28.42500 -81.31567 95 ft 7 kts 250°
2026-05-03 22:12 28.42470 -81.31615 98 ft 9 kts 223°
2026-05-03 22:13 28.42403 -81.31663 98 ft 13 kts 199°
2026-05-03 22:13 28.42315 -81.31666 97 ft 13 kts 176°
2026-05-03 22:13 28.42265 -81.31729 98 ft 12 kts 268°
2026-05-03 22:13 28.42256 -81.31822 100 ft 12 kts 236°
2026-05-03 22:14 28.42181 -81.31858 99 ft 13 kts 195°
2026-05-03 22:14 28.42072 -81.31879 99 ft 20 kts 181°
2026-05-03 22:14 28.41929 -81.31877 97 ft 20 kts 179°
2026-05-03 22:14 28.41789 -81.31875 98 ft 20 kts 180°
2026-05-03 22:15 28.41656 -81.31879 97 ft 19 kts 179°
2026-05-03 22:15 28.41550 -81.31910 97 ft 13 kts 240°
2026-05-03 22:15 28.41543 -81.32004 96 ft 12 kts 270°
2026-05-03 22:15 28.41543 -81.32083 96 ft 6 kts 269°
2026-05-03 22:16 28.41542 -81.32128 96 ft 6 kts 270°
2026-05-03 22:16 28.41548 -81.32180 96 ft 8 kts 293°
2026-05-03 22:16 28.41617 -81.32200 96 ft 15 kts
2026-05-03 22:16 28.41827 -81.32200 97 ft 62 kts 359°
2026-05-03 22:17 28.42510 -81.32205 104 ft 131 kts 360°
2026-05-03 22:17 28.43597 -81.32219 122 ft 182 kts
2026-05-03 22:17 28.44877 -81.32270 939 ft 175 kts 359°
2026-05-03 22:17 28.46129 -81.32305 1701 ft 184 kts
2026-05-03 22:18 28.47440 -81.32310 2223 ft 199 kts
2026-05-03 22:18 28.48883 -81.32310 2523 ft 217 kts
2026-05-03 22:18 28.50422 -81.32428 2970 ft 230 kts 346°
2026-05-03 22:18 28.51758 -81.33497 3433 ft 247 kts 307°
2026-05-03 22:19 28.52377 -81.35398 3802 ft 274 kts 276°
2026-05-03 22:19 28.52228 -81.37580 4604 ft 275 kts 255°
2026-05-03 22:19 28.51528 -81.39531 5686 ft 266 kts 243°
2026-05-03 22:19 28.50646 -81.41386 6531 ft 270 kts 243°
2026-05-03 22:20 28.49758 -81.43279 7243 ft 273 kts 243°
2026-05-03 22:20 28.48898 -81.45176 8163 ft 268 kts 244°
2026-05-03 22:20 28.48060 -81.47047 9085 ft 265 kts 245°
2026-05-03 22:20 28.47256 -81.48948 9854 ft 267 kts 245°
2026-05-03 22:21 28.46418 -81.50847 10525 ft 273 kts 244°
2026-05-03 22:21 28.45525 -81.52829 10818 ft 292 kts 244°
2026-05-03 22:21 28.44576 -81.54965 10992 ft 313 kts 244°
2026-05-03 22:21 28.43584 -81.57197 11239 ft 329 kts 244°
2026-05-03 22:22 28.42530 -81.59559 11517 ft 343 kts 244°
2026-05-03 22:22 28.41425 -81.62022 11736 ft 357 kts 244°
2026-05-03 22:22 28.40309 -81.64573 12206 ft 361 kts 244°
2026-05-03 22:22 28.39191 -81.67148 12671 ft 367 kts 244°
2026-05-03 22:23 28.38059 -81.69760 13151 ft 371 kts 244°
2026-05-03 22:23 28.36913 -81.72390 13733 ft 372 kts 244°
2026-05-03 22:23 28.35763 -81.75021 14260 ft 373 kts 244°
2026-05-03 22:23 28.34605 -81.77662 14758 ft 374 kts 244°
2026-05-03 22:24 28.33445 -81.80304 15241 ft 375 kts 244°
2026-05-03 22:24 28.32291 -81.82928 15715 ft 377 kts 244°
2026-05-03 22:24 28.31120 -81.85589 16166 ft 378 kts 244°
2026-05-03 22:24 28.29963 -81.88276 16619 ft 379 kts 247°
2026-05-03 22:25 28.29082 -81.91098 17049 ft 381 kts 256°
2026-05-03 22:25 28.28531 -81.94049 17492 ft 383 kts 257°
2026-05-03 22:25 28.27989 -81.97010 17906 ft 384 kts 257°
2026-05-03 22:25 28.27436 -81.99980 18317 ft 385 kts 257°
2026-05-03 22:26 28.26876 -82.02957 18665 ft 387 kts 257°
2026-05-03 22:26 28.26309 -82.05946 18991 ft 388 kts 257°
2026-05-03 22:26 28.25739 -82.08937 19307 ft 390 kts 257°
2026-05-03 22:26 28.25171 -82.11911 19621 ft 391 kts 257°
2026-05-03 22:27 28.24594 -82.14927 19943 ft 392 kts 257°
2026-05-03 22:27 28.24012 -82.17961 20253 ft 394 kts 257°
2026-05-03 22:27 28.23430 -82.20996 20563 ft 395 kts 257°
2026-05-03 22:27 28.22844 -82.24045 20864 ft 396 kts 257°
2026-05-03 22:28 28.22256 -82.27103 21172 ft 398 kts 257°
2026-05-03 22:28 28.21664 -82.30174 21457 ft 399 kts 257°
2026-05-03 22:28 28.21071 -82.33251 21737 ft 400 kts 257°
2026-05-03 22:28 28.20474 -82.36342 21994 ft 402 kts 257°
2026-05-03 22:29 28.19875 -82.39441 22277 ft 403 kts 257°
2026-05-03 22:29 28.19272 -82.42553 22485 ft 406 kts 256°
2026-05-03 22:29 28.18671 -82.45650 22708 ft 408 kts 256°
2026-05-03 22:29 28.18061 -82.48798 22981 ft 409 kts 256°
2026-05-03 22:30 28.17449 -82.51947 23252 ft 410 kts 256°
2026-05-03 22:30 28.16834 -82.55106 23485 ft 411 kts 256°
2026-05-03 22:30 28.16216 -82.58277 23685 ft 412 kts 256°
2026-05-03 22:30 28.15597 -82.61453 23884 ft 413 kts 256°
2026-05-03 22:31 28.14975 -82.64636 24081 ft 414 kts 256°
2026-05-03 22:31 28.14351 -82.67826 24276 ft 415 kts 256°
2026-05-03 22:31 28.13726 -82.71021 24462 ft 416 kts 256°
2026-05-03 22:31 28.13107 -82.74177 24646 ft 417 kts 256°
2026-05-03 22:32 28.12468 -82.77429 24826 ft 418 kts 256°
2026-05-03 22:32 28.11846 -82.80595 25036 ft 418 kts 257°
2026-05-03 22:32 28.11214 -82.83812 25250 ft 418 kts 257°
2026-05-03 22:32 28.10579 -82.87034 25434 ft 419 kts 257°
2026-05-03 22:33 28.09945 -82.90258 25632 ft 420 kts 257°
2026-05-03 22:33 28.09329 -82.93494 25818 ft 421 kts 257°
2026-05-03 22:33 28.08720 -82.96741 26023 ft 421 kts 257°
2026-05-03 22:33 28.08114 -82.99983 26310 ft 420 kts 257°
2026-05-03 22:34 28.07509 -83.03215 26635 ft 418 kts 257°
2026-05-03 22:34 28.06907 -83.06419 26992 ft 416 kts 257°
2026-05-03 22:34 28.06304 -83.09614 27350 ft 414 kts 257°
2026-05-03 22:34 28.05702 -83.12794 27709 ft 412 kts 257°
2026-05-03 22:35 28.05111 -83.15913 28094 ft 410 kts 258°
2026-05-03 22:35 28.04513 -83.19055 28596 ft 405 kts 258°
2026-05-03 22:35 28.03924 -83.22158 29115 ft 401 kts 258°
2026-05-03 22:35 28.03339 -83.25231 29580 ft 398 kts 258°
2026-05-03 22:36 28.02756 -83.28290 29992 ft 397 kts 258°
2026-05-03 22:36 28.02175 -83.31336 30380 ft 395 kts 258°
2026-05-03 22:36 28.01597 -83.34359 30809 ft 392 kts 257°
2026-05-03 22:36 28.01024 -83.37359 31275 ft 387 kts 257°
2026-05-03 22:37 28.00457 -83.40316 31749 ft 382 kts 257°
2026-05-03 22:37 27.99988 -83.43272 32036 ft 383 kts 262°
2026-05-03 22:37 27.99805 -83.46281 32082 ft 382 kts 264°
2026-05-03 22:38 27.99487 -83.52252 32076 ft 383 kts 264°
2026-05-03 22:38 27.99148 -83.58271 32084 ft 384 kts 263°
2026-05-03 22:39 27.98800 -83.64293 32081 ft 384 kts 263°
2026-05-03 22:39 27.98446 -83.70318 32080 ft 383 kts 263°
2026-05-03 22:40 27.98091 -83.76326 32085 ft 383 kts 263°
2026-05-03 22:40 27.97733 -83.82333 32083 ft 382 kts 263°
2026-05-03 22:41 27.97376 -83.88282 32086 ft 382 kts 263°
2026-05-03 22:41 27.97013 -83.94269 32098 ft 381 kts 263°
2026-05-03 22:42 27.96649 -84.00244 32089 ft 381 kts 263°
2026-05-03 22:42 27.96283 -84.06217 32090 ft 380 kts 263°
2026-05-03 22:43 27.95915 -84.12173 32093 ft 380 kts 263°
2026-05-03 22:43 27.95547 -84.18092 32096 ft 379 kts 263°
2026-05-03 22:44 27.95174 -84.24040 32091 ft 379 kts 263°
2026-05-03 22:44 27.94798 -84.29992 32081 ft 379 kts 263°
2026-05-03 22:45 27.94421 -84.35934 32081 ft 379 kts 264°
2026-05-03 22:45 27.94041 -84.41874 32093 ft 379 kts 263°
2026-05-03 22:46 27.93661 -84.47780 32098 ft 379 kts 263°
2026-05-03 22:46 27.93275 -84.53726 32098 ft 379 kts 263°
2026-05-03 22:47 27.92887 -84.59679 32096 ft 380 kts 263°
2026-05-03 22:47 27.92495 -84.65636 32099 ft 380 kts 263°
2026-05-03 22:48 27.92101 -84.71594 32109 ft 380 kts 264°
2026-05-03 22:48 27.91707 -84.77520 32102 ft 380 kts 264°
2026-05-03 22:49 27.91308 -84.83476 32102 ft 380 kts 264°
2026-05-03 22:49 27.90907 -84.89433 32102 ft 379 kts 264°
2026-05-03 22:50 27.90503 -84.95376 32099 ft 379 kts 263°
2026-05-03 22:50 27.90098 -85.01309 32105 ft 378 kts 263°
2026-05-03 22:51 27.89694 -85.07200 32107 ft 378 kts 264°
2026-05-03 22:51 27.89284 -85.13124 32105 ft 378 kts 264°
2026-05-03 22:52 27.88873 -85.19044 32105 ft 378 kts 263°
2026-05-03 22:52 27.88826 -85.24995 32112 ft 381 kts 272°
2026-05-03 22:53 27.89900 -85.30900 32106 ft 389 kts 282°
2026-05-03 22:53 27.91363 -85.35702 32108 ft 389 kts 283°
2026-05-03 22:54 27.93426 -85.42414 32107 ft 389 kts 283°
2026-05-03 22:54 27.95186 -85.48191 32111 ft 388 kts 283°
2026-05-03 22:55 27.96936 -85.53971 32114 ft 388 kts 283°
2026-05-03 22:55 27.98387 -85.58781 32113 ft 388 kts 283°
2026-05-03 22:56 28.00128 -85.64561 32143 ft 389 kts 283°
2026-05-03 22:56 28.02154 -85.71305 32119 ft 390 kts 282°
2026-05-03 22:57 28.03615 -85.76173 32112 ft 390 kts 282°
2026-05-03 22:57 28.05343 -85.81940 32117 ft 390 kts 282°
2026-05-03 22:58 28.07080 -85.87749 32115 ft 389 kts 282°
2026-05-03 22:58 28.08814 -85.93558 32116 ft 389 kts 282°
2026-05-03 22:59 28.10545 -85.99366 32118 ft 389 kts 282°
2026-05-03 22:59 28.12263 -86.05138 32115 ft 389 kts 282°
2026-05-03 23:00 28.13988 -86.10949 32117 ft 389 kts 283°
2026-05-03 23:00 28.15711 -86.16762 32120 ft 389 kts 282°
2026-05-03 23:01 28.17432 -86.22575 32124 ft 390 kts 283°
2026-05-03 23:01 28.19152 -86.28398 32117 ft 390 kts 283°
2026-05-03 23:02 28.20858 -86.34181 32117 ft 389 kts 283°
2026-05-03 23:02 28.22572 -86.40003 32117 ft 389 kts 283°
2026-05-03 23:03 28.24282 -86.45822 32117 ft 389 kts 283°
2026-05-03 23:03 28.25990 -86.51643 32123 ft 389 kts 283°
2026-05-03 23:04 28.27693 -86.57461 32129 ft 389 kts 284°
2026-05-03 23:04 28.29384 -86.63244 32122 ft 389 kts 284°
2026-05-03 23:05 28.31083 -86.69064 32126 ft 388 kts 284°
2026-05-03 23:05 28.32782 -86.74878 32125 ft 388 kts 284°
2026-05-03 23:06 28.34489 -86.80701 32136 ft 389 kts 284°
2026-05-03 23:06 28.36195 -86.86534 32123 ft 389 kts 284°
2026-05-03 23:07 28.37899 -86.92370 32122 ft 390 kts 284°
2026-05-03 23:07 28.39590 -86.98174 32131 ft 390 kts 284°
2026-05-03 23:08 28.41289 -87.04019 32127 ft 390 kts 284°
2026-05-03 23:08 28.42987 -87.09866 32128 ft 390 kts 284°
2026-05-03 23:09 28.44682 -87.15718 32131 ft 390 kts 284°
2026-05-03 23:09 28.46374 -87.21568 32131 ft 390 kts 284°
2026-05-03 23:10 28.48052 -87.27379 32131 ft 390 kts 284°
2026-05-03 23:10 28.49739 -87.33232 32128 ft 390 kts 284°
2026-05-03 23:11 28.51422 -87.39084 32130 ft 389 kts 285°
2026-05-03 23:11 28.53103 -87.44937 32136 ft 389 kts 284°
2026-05-03 23:12 28.54779 -87.50784 32138 ft 389 kts 284°
2026-05-03 23:12 28.56440 -87.56593 32136 ft 389 kts 284°
2026-05-03 23:13 28.58110 -87.62438 32131 ft 389 kts 284°
2026-05-03 23:13 28.59776 -87.68285 32135 ft 388 kts 284°
2026-05-03 23:14 28.61440 -87.74131 32136 ft 388 kts 285°
2026-05-03 23:14 28.63089 -87.79939 32131 ft 388 kts 285°
2026-05-03 23:15 28.64744 -87.85776 32196 ft 388 kts 285°
2026-05-03 23:15 28.66401 -87.91632 32152 ft 389 kts 285°
2026-05-03 23:16 28.68057 -87.97497 32142 ft 389 kts 285°
2026-05-03 23:16 28.69713 -88.03369 32145 ft 390 kts 285°
2026-05-03 23:17 28.71356 -88.09208 32142 ft 390 kts 285°
2026-05-03 23:17 28.73006 -88.15091 32140 ft 390 kts 285°
2026-05-03 23:18 28.74651 -88.20972 32140 ft 390 kts 285°
2026-05-03 23:18 28.76295 -88.26863 32141 ft 390 kts 285°
2026-05-03 23:19 28.77936 -88.32748 32145 ft 389 kts 285°
2026-05-03 23:19 28.79560 -88.38589 32143 ft 389 kts 285°
2026-05-03 23:20 28.81193 -88.44470 32146 ft 389 kts 285°
2026-05-03 23:20 28.82820 -88.50344 32141 ft 388 kts 286°
2026-05-03 23:21 28.84445 -88.56216 32139 ft 388 kts 286°
2026-05-03 23:21 28.86053 -88.62042 32142 ft 387 kts 286°
2026-05-03 23:22 28.88453 -88.70832 32145 ft 386 kts 284°
2026-05-03 23:22 28.89753 -88.76778 32148 ft 386 kts 283°
2026-05-03 23:23 28.91000 -88.82737 32147 ft 386 kts 283°
2026-05-03 23:23 28.92243 -88.88654 32148 ft 386 kts 283°
2026-05-03 23:24 28.93501 -88.94604 32147 ft 386 kts 283°
2026-05-03 23:24 28.94761 -89.00556 32147 ft 386 kts 283°
2026-05-03 23:25 28.96020 -89.06514 32160 ft 387 kts 283°
2026-05-03 23:25 28.97272 -89.12452 32153 ft 387 kts 283°
2026-05-03 23:26 28.98530 -89.18436 32147 ft 388 kts 283°
2026-05-03 23:26 28.99787 -89.24428 32124 ft 388 kts 284°
2026-05-03 23:27 29.01043 -89.30423 32140 ft 388 kts 284°
2026-05-03 23:27 29.02294 -89.36415 32147 ft 388 kts 284°
2026-05-03 23:28 29.03535 -89.42370 32152 ft 388 kts 284°
2026-05-03 23:28 29.04781 -89.48365 32148 ft 388 kts 284°
2026-05-03 23:29 29.06024 -89.54360 32143 ft 388 kts 284°
2026-05-03 23:29 29.07264 -89.60355 32143 ft 387 kts 284°
2026-05-03 23:30 29.08491 -89.66302 32150 ft 387 kts 284°
2026-05-03 23:30 29.09725 -89.72295 32145 ft 387 kts 284°
2026-05-03 23:31 29.10955 -89.78282 32145 ft 387 kts 284°
2026-05-03 23:31 29.12182 -89.84271 32145 ft 387 kts 284°
2026-05-03 23:32 29.13405 -89.90258 32146 ft 387 kts 284°
2026-05-03 23:32 29.14619 -89.96208 32146 ft 387 kts 284°
2026-05-03 23:33 29.15838 -90.02203 32138 ft 386 kts 284°
2026-05-03 23:33 29.17052 -90.08184 32147 ft 386 kts 284°
2026-05-03 23:34 29.18089 -90.14172 32149 ft 387 kts 281°
2026-05-03 23:34 29.18840 -90.20265 32150 ft 387 kts 280°
2026-05-03 23:35 29.19572 -90.26361 32152 ft 386 kts 280°
2026-05-03 23:35 29.20328 -90.32447 32154 ft 386 kts 280°
2026-05-03 23:36 29.21095 -90.38528 32133 ft 386 kts 281°
2026-05-03 23:36 29.21856 -90.44555 32143 ft 385 kts 281°
2026-05-03 23:37 29.22620 -90.50613 32145 ft 384 kts 281°
2026-05-03 23:37 29.23378 -90.56654 32144 ft 383 kts 281°
2026-05-03 23:38 29.24134 -90.62693 32139 ft 383 kts 281°
2026-05-03 23:38 29.24881 -90.68685 32172 ft 383 kts 281°
2026-05-03 23:39 29.25632 -90.74735 32149 ft 385 kts 281°
2026-05-03 23:39 29.26383 -90.80807 32146 ft 385 kts 281°
2026-05-03 23:40 29.27132 -90.86885 32141 ft 386 kts 281°
2026-05-03 23:40 29.27874 -90.92936 32144 ft 386 kts 281°
2026-05-03 23:41 29.28619 -90.99033 32142 ft 387 kts 281°
2026-05-03 23:41 29.29363 -91.05140 32141 ft 387 kts 281°
2026-05-03 23:42 29.30104 -91.11246 32146 ft 387 kts 281°
2026-05-03 23:42 29.30840 -91.17344 32141 ft 385 kts 282°
2026-05-03 23:43 29.31566 -91.23368 32144 ft 383 kts 282°
2026-05-03 23:43 29.32287 -91.29397 32147 ft 381 kts 282°
2026-05-03 23:44 29.33003 -91.35404 32149 ft 379 kts 282°
2026-05-03 23:44 29.33713 -91.41384 32148 ft 378 kts 282°
2026-05-03 23:45 29.34414 -91.47313 32151 ft 378 kts 282°
2026-05-03 23:45 29.35116 -91.53270 32126 ft 377 kts 282°
2026-05-03 23:46 29.35815 -91.59223 32149 ft 377 kts 282°
2026-05-03 23:46 29.36511 -91.65178 32153 ft 377 kts 282°
2026-05-03 23:47 29.37200 -91.71091 32148 ft 377 kts 282°
2026-05-03 23:47 29.37891 -91.77051 32148 ft 377 kts 282°
2026-05-03 23:48 29.38580 -91.83014 32149 ft 378 kts 282°
2026-05-03 23:48 29.39268 -91.88990 32150 ft 378 kts 282°
2026-05-03 23:49 29.39952 -91.94961 32135 ft 378 kts 282°
2026-05-03 23:49 29.40629 -92.00895 32139 ft 378 kts 282°
2026-05-03 23:50 29.41193 -92.05857 32141 ft 378 kts 282°
2026-05-03 23:50 29.41985 -92.12844 32142 ft 378 kts 282°
2026-05-03 23:51 29.42659 -92.18821 32145 ft 378 kts 282°
2026-05-03 23:51 29.43326 -92.24761 32144 ft 378 kts 282°
2026-05-03 23:52 29.43995 -92.30745 32119 ft 378 kts 282°
2026-05-03 23:52 29.44660 -92.36719 32138 ft 378 kts 282°
2026-05-03 23:53 29.45325 -92.42703 32144 ft 378 kts 282°
2026-05-03 23:53 29.45880 -92.48681 32149 ft 381 kts 278°
2026-05-03 23:54 29.46150 -92.54756 32149 ft 382 kts 278°
2026-05-03 23:54 29.46395 -92.60848 32157 ft 382 kts 278°
2026-05-03 23:55 29.46661 -92.66934 32152 ft 382 kts 278°
2026-05-03 23:55 29.46936 -92.72980 32147 ft 382 kts 278°
2026-05-03 23:56 29.47213 -92.79066 32156 ft 382 kts 278°
2026-05-03 23:56 29.47488 -92.85162 32156 ft 382 kts 278°
2026-05-03 23:57 29.47760 -92.91253 32159 ft 382 kts 278°
2026-05-03 23:57 29.48028 -92.97309 32157 ft 383 kts 278°
2026-05-03 23:58 29.48295 -93.03408 32158 ft 383 kts 278°
2026-05-03 23:58 29.48557 -93.09508 32149 ft 382 kts 277°
2026-05-03 23:59 29.48803 -93.15601 32157 ft 382 kts 277°
2026-05-03 23:59 29.49042 -93.21655 32157 ft 382 kts 277°
2026-05-04 00:00 29.49282 -93.27758 32160 ft 383 kts 277°
2026-05-04 00:00 29.49519 -93.33857 32155 ft 383 kts 277°
2026-05-04 00:01 29.49755 -93.39966 32163 ft 384 kts 277°
2026-05-04 00:01 29.49986 -93.46044 32157 ft 384 kts 277°
2026-05-04 00:02 29.50216 -93.52173 32155 ft 384 kts 277°
2026-05-04 00:02 29.50444 -93.58309 31866 ft 386 kts 277°
2026-05-04 00:03 29.50556 -93.61369 31416 ft 382 kts 277°
2026-05-04 00:03 29.50666 -93.64398 30919 ft 376 kts 277°
2026-05-04 00:03 29.50773 -93.67384 30365 ft 373 kts 277°
2026-05-04 00:03 29.50878 -93.70304 29766 ft 369 kts 277°
2026-05-04 00:04 29.50983 -93.73231 29170 ft 365 kts 277°
2026-05-04 00:04 29.51086 -93.76121 28630 ft 360 kts 277°
2026-05-04 00:04 29.51188 -93.78984 28079 ft 357 kts 277°
2026-05-04 00:04 29.51288 -93.81809 27535 ft 353 kts 276°
2026-05-04 00:05 29.51386 -93.84605 27033 ft 349 kts 276°
2026-05-04 00:05 29.51484 -93.87380 26513 ft 346 kts 276°
2026-05-04 00:05 29.51580 -93.90127 26016 ft 344 kts 276°
2026-05-04 00:05 29.51674 -93.92856 25564 ft 340 kts 276°
2026-05-04 00:06 29.51763 -93.95498 25282 ft 332 kts 276°
2026-05-04 00:06 29.51854 -93.98137 24851 ft 330 kts 276°
2026-05-04 00:06 29.51945 -94.00764 24407 ft 328 kts 276°
2026-05-04 00:06 29.52036 -94.03383 23952 ft 329 kts 276°
2026-05-04 00:07 29.52128 -94.06022 23418 ft 333 kts 276°
2026-05-04 00:07 29.52222 -94.08709 22910 ft 342 kts 276°
2026-05-04 00:07 29.52316 -94.11464 22397 ft 346 kts 276°
2026-05-04 00:07 29.52408 -94.14217 21889 ft 344 kts 276°
2026-05-04 00:08 29.52497 -94.16917 21406 ft 341 kts 276°
2026-05-04 00:08 29.52586 -94.19632 20921 ft 339 kts 275°
2026-05-04 00:08 29.52675 -94.22327 20455 ft 337 kts 276°
2026-05-04 00:08 29.52763 -94.25010 19998 ft 335 kts 276°
2026-05-04 00:09 29.52851 -94.27678 19553 ft 334 kts 276°
2026-05-04 00:09 29.53221 -94.30276 19083 ft 328 kts 291°
2026-05-04 00:09 29.54127 -94.32663 18668 ft 325 kts 297°
2026-05-04 00:09 29.55141 -94.34984 18152 ft 325 kts 298°
2026-05-04 00:10 29.56155 -94.37267 17676 ft 324 kts 298°
2026-05-04 00:10 29.57171 -94.39575 17210 ft 323 kts 297°
2026-05-04 00:10 29.58172 -94.41875 16751 ft 322 kts 297°
2026-05-04 00:10 29.59162 -94.44172 16314 ft 321 kts 297°
2026-05-04 00:11 29.60146 -94.46466 15874 ft 320 kts 297°
2026-05-04 00:11 29.61127 -94.48756 15441 ft 319 kts 297°
2026-05-04 00:11 29.62104 -94.51041 15062 ft 317 kts 297°
2026-05-04 00:11 29.63080 -94.53318 14764 ft 319 kts 296°
2026-05-04 00:12 29.64076 -94.55639 14452 ft 328 kts 296°
2026-05-04 00:12 29.65096 -94.58016 14119 ft 334 kts 296°
2026-05-04 00:12 29.66112 -94.60391 13789 ft 337 kts 296°
2026-05-04 00:12 29.67144 -94.62801 13521 ft 334 kts 296°
2026-05-04 00:13 29.68177 -94.65216 13018 ft 339 kts 296°
2026-05-04 00:13 29.69209 -94.67629 12683 ft 334 kts 296°
2026-05-04 00:13 29.70229 -94.70016 12339 ft 330 kts 296°
2026-05-04 00:13 29.71231 -94.72364 12023 ft 325 kts 296°
2026-05-04 00:14 29.72219 -94.74683 11711 ft 320 kts 296°
2026-05-04 00:14 29.73195 -94.76975 11412 ft 318 kts 296°
2026-05-04 00:14 29.74155 -94.79231 11134 ft 318 kts 296°
2026-05-04 00:14 29.75124 -94.81510 10822 ft 315 kts 296°
2026-05-04 00:15 29.76080 -94.83758 10532 ft 311 kts 296°
2026-05-04 00:15 29.77021 -94.85973 10241 ft 307 kts 296°
2026-05-04 00:15 29.77952 -94.88165 9961 ft 302 kts 296°
2026-05-04 00:15 29.78847 -94.90276 9941 ft 283 kts 296°
2026-05-04 00:16 29.79705 -94.92298 9447 ft 281 kts 296°
2026-05-04 00:16 29.80554 -94.94302 9132 ft 279 kts 296°
2026-05-04 00:16 29.81386 -94.96266 8886 ft 275 kts 296°
2026-05-04 00:16 29.82218 -94.98230 8607 ft 272 kts 296°
2026-05-04 00:17 29.83042 -95.00177 8351 ft 269 kts 296°
2026-05-04 00:17 29.83857 -95.02105 8102 ft 267 kts 296°
2026-05-04 00:17 29.84667 -95.04019 7855 ft 265 kts 296°
2026-05-04 00:17 29.85474 -95.05928 7608 ft 264 kts 297°
2026-05-04 00:18 29.86275 -95.07826 7365 ft 263 kts 296°
2026-05-04 00:18 29.87075 -95.09721 7113 ft 263 kts 296°
2026-05-04 00:18 29.87746 -95.11649 6869 ft 264 kts 285°
2026-05-04 00:18 29.88125 -95.13710 6641 ft 263 kts 282°
2026-05-04 00:19 29.88508 -95.15768 6392 ft 262 kts 283°
2026-05-04 00:19 29.88907 -95.17819 6145 ft 262 kts 283°
2026-05-04 00:19 29.89230 -95.19881 6034 ft 263 kts 274°
2026-05-04 00:19 29.89221 -95.21997 6013 ft 265 kts 269°
2026-05-04 00:20 29.89193 -95.24102 6006 ft 264 kts 270°
2026-05-04 00:20 29.89185 -95.26213 5997 ft 263 kts 270°
2026-05-04 00:20 29.89185 -95.28320 5997 ft 263 kts 271°
2026-05-04 00:20 29.89189 -95.30400 5995 ft 263 kts 271°
2026-05-04 00:21 29.89194 -95.32513 5996 ft 263 kts 271°
2026-05-04 00:21 29.89201 -95.34615 6002 ft 262 kts 270°
2026-05-04 00:21 29.89207 -95.36709 6004 ft 261 kts 270°
2026-05-04 00:21 29.89212 -95.38804 5998 ft 261 kts 270°
2026-05-04 00:22 29.89216 -95.40888 5986 ft 258 kts 270°
2026-05-04 00:22 29.89221 -95.42922 5980 ft 249 kts 270°
2026-05-04 00:22 29.89225 -95.44864 5975 ft 236 kts 270°
2026-05-04 00:22 29.89227 -95.46712 5959 ft 227 kts 269°
2026-05-04 00:23 29.89195 -95.48538 5575 ft 233 kts 268°
2026-05-04 00:23 29.89143 -95.50394 5305 ft 230 kts 266°
2026-05-04 00:23 29.89074 -95.52221 4987 ft 227 kts 266°
2026-05-04 00:23 29.89008 -95.54010 4753 ft 219 kts 269°
2026-05-04 00:24 29.89435 -95.55657 4560 ft 218 kts 309°
2026-05-04 00:24 29.90703 -95.56561 4395 ft 220 kts 352°
2026-05-04 00:24 29.92212 -95.56578 4237 ft 217 kts
2026-05-04 00:24 29.93732 -95.56528 3997 ft 219 kts
2026-05-04 00:25 29.95223 -95.56483 3779 ft 216 kts
2026-05-04 00:25 29.96678 -95.56230 3506 ft 212 kts 30°
2026-05-04 00:25 29.97801 -95.55209 3315 ft 203 kts 53°
2026-05-04 00:25 29.98589 -95.53871 3115 ft 202 kts 58°
2026-05-04 00:26 29.99332 -95.52458 2897 ft 211 kts 73°
2026-05-04 00:26 29.99379 -95.50834 2689 ft 200 kts 104°
2026-05-04 00:26 29.99274 -95.49241 2392 ft 201 kts 85°
2026-05-04 00:26 29.99444 -95.47658 2105 ft 197 kts 85°
2026-05-04 00:27 29.99568 -95.46116 1826 ft 195 kts 90°
2026-05-04 00:27 29.99558 -95.44559 1671 ft 194 kts 95°
2026-05-04 00:27 29.99464 -95.42994 1445 ft 195 kts 96°
2026-05-04 00:27 29.99380 -95.41475 1156 ft 187 kts 96°
2026-05-04 00:28 29.99349 -95.40014 909 ft 176 kts 93°
2026-05-04 00:28 29.99346 -95.38659 741 ft 159 kts 94°
2026-05-04 00:28 29.99338 -95.37448 507 ft 146 kts 92°
2026-05-04 00:28 29.99342 -95.36316 270 ft 138 kts 92°
2026-05-04 00:29 29.99342 -95.35211 121 ft 140 kts 92°
2026-05-04 00:29 29.99340 -95.34224 104 ft 96 kts 89°
2026-05-04 00:29 29.99342 -95.33673 107 ft 54 kts 90°
2026-05-04 00:29 29.99333 -95.33394 105 ft 26 kts 100°
2026-05-04 00:30 29.99278 -95.33222 107 ft 18 kts 119°
2026-05-04 00:30 29.99225 -95.33129 106 ft 11 kts 146°
2026-05-04 00:30 29.99184 -95.33149 105 ft 7 kts 251°
2026-05-04 00:30 29.99179 -95.33202 106 ft 7 kts 268°
2026-05-04 00:31 29.99177 -95.33281 106 ft 14 kts 269°
2026-05-04 00:31 29.99177 -95.33423 106 ft 22 kts 270°
2026-05-04 00:31 29.99178 -95.33599 106 ft 22 kts 270°
2026-05-04 00:31 29.99178 -95.33772 106 ft 21 kts 270°
2026-05-04 00:32 29.99178 -95.33926 106 ft 15 kts 267°
2026-05-04 00:32 29.99130 -95.33981 106 ft 10 kts 187°
2026-05-04 00:32 29.99064 -95.33982 106 ft 10 kts 180°
2026-05-04 00:32 29.98991 -95.33982 106 ft 12 kts 180°
2026-05-04 00:33 29.98904 -95.33986 106 ft 9 kts 197°
2026-05-04 00:33 29.98816 -95.34020 106 ft 3 kts 199°
2026-05-04 00:33 29.98811 -95.34022 106 ft 0 kts 199°